This is the latest recevied weather packets stored in our database for station/object N5TSS. If no packets are shown the sender has not sent any weather packets the latest 10 day(s).
| Time | Temp. | Humidity | Pressure | Rain* | Wind** | Luminosity | Snow |
|---|---|---|---|---|---|---|---|
| 1778094530 | 27.78° C | 76% | 1010.8 hPa | 0 mm | - | - | - |
| 1778094226 | 27.78° C | 76% | 1010.8 hPa | 0 mm | - | - | - |
| 1778093923 | 27.78° C | 76% | 1010.8 hPa | 0 mm | - | - | - |
| 1778093620 | 28.33° C | 76% | 1010.8 hPa | 0 mm | - | - | - |
| 1778093317 | 28.33° C | 75% | 1010.8 hPa | 0 mm | - | - | - |
| 1778093014 | 28.33° C | 76% | 1010.8 hPa | 0 mm | - | - | - |
| 1778092712 | 28.33° C | 77% | 1010.8 hPa | 0 mm | - | - | - |
| 1778092407 | 27.78° C | 77% | 1010.8 hPa | 0 mm | - | - | - |
| 1778092105 | 27.78° C | 78% | 1010.8 hPa | 0 mm | - | - | - |
| 1778091801 | 27.78° C | 78% | 1011.2 hPa | 0 mm | - | - | - |
| 1778091499 | 27.78° C | 80% | 1011.5 hPa | 0 mm | - | - | - |
| 1778091197 | 27.22° C | 79% | 1011.2 hPa | 0 mm | - | - | - |
| 1778090894 | 27.22° C | 82% | 1011.5 hPa | 0 mm | - | - | - |
| 1778090589 | 27.22° C | 82% | 1011.9 hPa | 0 mm | - | - | - |
| 1778090286 | 27.22° C | 82% | 1011.9 hPa | 0 mm | - | - | - |
| 1778089983 | 27.22° C | 80% | 1011.9 hPa | 0 mm | - | - | - |
| 1778089680 | 27.22° C | 79% | 1012.2 hPa | 0 mm | - | - | - |
| 1778089378 | 27.22° C | 79% | 1012.5 hPa | 0 mm | - | - | - |
| 1778089075 | 27.22° C | 79% | 1012.5 hPa | 0 mm | - | - | - |
| 1778088772 | 27.22° C | 79% | 1012.5 hPa | 0 mm | - | - | - |
| 1778088469 | 27.22° C | 79% | 1012.5 hPa | 0 mm | - | - | - |
| 1778088165 | 27.22° C | 80% | 1012.5 hPa | 0 mm | - | - | - |
| 1778087863 | 27.22° C | 79% | 1012.5 hPa | 0 mm | - | - | - |
| 1778087560 | 27.22° C | 79% | 1012.5 hPa | 0 mm | - | - | - |
| 1778087258 | 27.22° C | 78% | 1012.5 hPa | 0 mm | - | - | - |
* Rain latest hour (hover to see other rain measurements)
** Current wind speed in m/s (hover to see current wind gust speed)